GW1265 Weather Reports


time (UTC)temp
F
wind
direction
speed
knots
gust
knots
rain 1hr
in
rain 24hr
in
rain mn
in
humidity
%
barometer
mb
20260508195336 56 45 3.5 15.6 0.00 0.00 0.00 10 998.9
20260508194826 57 113 4.3 18.2 0.00 0.00 0.00 10 999.0
20260508194316 57 180 7.0 18.2 0.00 0.00 0.00 10 998.8
20260508193806 57 248 7.0 17.4 0.00 0.00 0.00 10 999.0
20260508193257 56 135 5.2 17.4 0.00 0.00 0.00 10 998.9
20260508192746 56 45 5.2 15.6 0.00 0.00 0.00 10 998.7
20260508192236 57 113 3.5 17.4 0.00 0.00 0.00 10 998.9
20260508191726 57 23 5.2 17.4 0.00 0.00 0.00 10 998.8
20260508191215 57 203 3.5 19.1 0.00 0.00 0.00 10 998.9
20260508190705 57 113 6.1 20.9 0.00 0.00 0.00 10 999.3
20260508190155 57 270 4.3 20.9 0.00 0.00 0.00 10 998.9
20260508185646 57 158 3.5 19.1 0.00 0.00 0.00 10 998.9
20260508185135 57 68 5.2 19.1 0.00 0.00 0.00 10 998.9
20260508184625 57 90 7.0 18.2 0.00 0.00 0.00 10 998.9
20260508184115 57 135 4.3 17.4 0.00 0.00 0.00 10 999.2
20260508183605 56 293 7.0 15.6 0.00 0.00 0.00 10 998.9
20260508182544 57 248 6.1 17.4 0.00 0.00 0.00 10 999.2
20260508182034 57 90 3.5 18.2 0.00 0.00 0.00 10 999.0
20260508181525 57 270 5.2 18.2 0.00 0.00 0.00 10 999.2
20260508181015 56 225 3.5 15.6 0.00 0.00 0.00 10 999.4
20260508180504 57 90 6.1 15.6 0.00 0.00 0.00 10 999.3
20260508175954 57 113 3.5 13.0 0.00 0.00 0.00 10 999.3
20260508175444 57 0 5.2 15.6 0.00 0.00 0.00 10 999.3
20260508174934 57 135 7.0 18.2 0.00 0.00 0.00 10 999.4
20260508174423 56 90 5.2 18.2 0.00 0.00 0.00 10 999.7
20260508173914 56 293 3.5 17.4 0.00 0.00 0.00 10 999.4
20260508172853 56 293 7.0 14.8 0.00 0.00 0.00 10 999.3
20260508172343 54 225 5.2 14.8 0.00 0.00 0.00 10 999.7
20260508171833 55 45 6.1 20.0 0.00 0.00 0.00 10 999.2
20260508170812 55 248 4.3 17.4 0.00 0.00 0.00 10 999.7
20260508170303 54 180 3.5 21.7 0.00 0.00 0.00 10 999.5
20260508165753 55 158 7.0 21.7 0.00 0.00 0.00 10 999.6
20260508165243 55 270 6.1 18.2 0.00 0.00 0.00 10 999.7
20260508164222 54 338 3.5 13.9 0.00 0.00 0.00 10 1000.0
20260508163712 54 315 3.5 15.6 0.00 0.00 0.00 10 1000.2
20260508163202 54 338 7.0 17.4 0.00 0.00 0.00 10 1000.0
20260508162652 54 293 7.0 17.4 0.00 0.00 0.00 10 999.9
20260508162142 53 135 3.5 14.8 0.00 0.00 0.00 10 1000.0
20260508161632 53 68 3.5 17.4 0.00 0.00 0.00 10 1000.4
20260508160612 53 158 5.2 25.2 0.00 0.00 0.00 10 1000.3
20260508155551 54 0 7.0 21.7 0.00 0.00 0.00 10 1000.5
20260508154531 53 113 5.2 15.6 0.00 0.00 0.00 10 1000.8
20260508154021 53 315 7.0 21.7 0.00 0.00 0.00 10 1000.5
20260508153512 53 180 7.0 21.7 0.00 0.00 0.00 10 1000.7
20260508153001 54 293 4.3 20.0 0.00 0.00 0.00 10 1000.8
20260508152450 53 0 5.2 20.0 0.00 0.00 0.00 10 1000.7
20260508151940 52 293 5.2 17.4 0.00 0.00 0.00 10 1000.6
20260508151431 52 180 5.2 20.0 0.00 0.00 0.00 10 1000.7
20260508150919 52 0 7.0 20.0 0.00 0.00 0.00 10 1000.5
20260508150411 51 203 7.0 17.4 0.00 0.00 0.00 10 1000.8
20260508145859 51 225 4.3 17.4 0.00 0.00 0.00 10 1000.7
20260508145349 51 158 5.2 17.4 0.00 0.00 0.00 10 1000.5
20260508144330 51 248 5.2 20.0 0.00 0.00 0.00 10 1000.8
20260508143820 51 248 4.3 18.2 0.00 0.00 0.00 10 1000.9
20260508143309 50 180 3.5 18.2 0.00 0.00 0.00 10 1001.1
20260508142800 50 315 4.3 21.7 0.00 0.00 0.00 10 1001.1
20260508142255 50 23 4.3 21.7 0.00 0.00 0.00 10 1000.9
20260508141229 50 270 7.0 17.4 0.00 0.00 0.00 10 1001.3
20260508140719 50 293 5.2 17.4 0.00 0.00 0.00 10 1001.1
20260508140208 49 113 7.0 20.9 0.00 0.00 0.00 10 1000.7
20260508135659 49 225 4.3 20.9 0.00 0.00 0.00 10 1000.9
20260508135149 49 180 7.0 17.4 0.00 0.00 0.00 10 1001.1
20260508134128 50 113 5.2 18.2 0.00 0.00 0.00 10 1001.3
20260508133618 50 248 7.0 20.9 0.00 0.00 0.00 10 1000.8
20260508133108 50 68 5.2 20.9 0.00 0.00 0.00 10 1000.9
20260508132558 50 45 4.3 20.9 0.00 0.00 0.00 10 1000.9
20260508132048 50 0 4.3 15.6 0.00 0.00 0.00 10 1001.0
20260508131538 50 180 4.3 19.1 0.00 0.00 0.00 10 1000.5
20260508131028 49 45 4.3 19.1 0.00 0.00 0.00 10 1000.7
20260508130518 49 270 6.1 18.2 0.00 0.00 0.00 10 1000.8
20260508130007 49 68 4.3 18.2 0.00 0.00 0.00 10 1000.2
20260508125457 49 315 3.5 20.0 0.00 0.00 0.00 10 1000.2
20260508124946 48 248 6.1 20.0 0.00 0.00 0.00 10 1000.1
20260508124437 48 203 6.1 17.4 0.00 0.00 0.00 10 1000.4
20260508123927 47 0 7.0 19.1 0.00 0.00 0.00 10 999.9
20260508123416 47 225 4.3 19.1 0.00 0.00 0.00 10 999.9
20260508122907 47 248 6.1 21.7 0.00 0.00 0.00 10 1000.2
20260508122357 47 248 9.6 21.7 0.00 0.00 0.00 10 1000.0
20260508121336 46 270 6.1 20.9 0.00 0.00 0.00 10 999.9
20260508120316 46 203 7.0 17.4 0.00 0.00 0.00 10 999.9
20260508115256 45 338 4.3 20.9 0.00 0.00 0.00 10 1000.1
20260508114746 45 315 3.5 18.2 0.00 0.00 0.00 10 999.7
20260508114235 44 315 3.5 18.2 0.00 0.00 0.00 10 1000.0
20260508113726 44 23 7.8 18.2 0.00 0.00 0.00 10 1000.0
20260508113216 44 203 4.3 17.4 0.00 0.00 0.00 10 999.5
20260508112706 44 248 6.1 19.1 0.00 0.00 0.00 10 999.7
20260508112155 43 68 4.3 19.1 0.00 0.00 0.00 10 999.7
20260508111135 43 135 4.3 20.0 0.00 0.00 0.00 10 999.7
20260508110625 44 68 5.2 20.0 0.00 0.00 0.00 10 999.5
20260508110115 44 0 4.3 19.1 0.00 0.00 0.00 10 999.3
20260508105604 44 315 5.2 19.1 0.00 0.00 0.00 10 999.5
20260508105055 44 315 7.0 13.9 0.00 0.00 0.00 10 999.6
20260508104546 44 270 6.1 17.4 0.00 0.00 0.00 10 999.6
20260508103524 44 270 5.2 14.8 0.00 0.00 0.00 10 999.3
20260508103013 43 158 5.2 13.0 0.00 0.00 0.00 10 999.2
20260508102503 44 293 5.2 18.2 0.00 0.00 0.00 10 999.2
20260508101443 44 225 6.1 20.0 0.00 0.00 0.00 10 999.2
20260508100934 44 68 5.2 18.2 0.00 0.00 0.00 10 998.9
20260508100424 44 225 5.2 15.6 0.00 0.00 0.00 10 999.1
20260508095913 44 135 7.0 15.6 0.00 0.00 0.00 10 999.0
20260508095403 44 248 5.2 26.1 0.00 0.00 0.00 10 999.1
20260508094854 44 68 3.5 26.1 0.00 0.00 0.00 10 999.3
20260508094353 44 0 7.0 20.9 0.00 0.00 0.00 10 999.1
20260508093833 44 315 6.1 20.9 0.00 0.00 0.00 10 998.8
20260508093323 44 270 3.5 14.8 0.00 0.00 0.00 10 999.1
20260508092312 44 180 6.1 20.9 0.00 0.00 0.00 10 998.9
20260508091752 44 90 4.3 15.6 0.00 0.00 0.00 10 998.9
20260508091243 44 293 7.0 18.2 0.00 0.00 0.00 10 998.7
20260508090223 44 90 6.1 19.1 0.00 0.00 0.00 10 998.6
20260508085711 44 135 4.3 19.1 0.00 0.00 0.00 10 998.5
20260508085201 44 270 7.8 19.1 0.00 0.00 0.00 10 998.3
20260508084651 44 270 4.3 23.5 0.00 0.00 0.00 10 998.8
20260508084142 44 90 7.0 23.5 0.00 0.00 0.00 10 998.5
20260508083631 44 90 7.0 17.4 0.00 0.00 0.00 10 998.3
20260508083122 44 0 7.0 15.6 0.00 0.00 0.00 10 998.1
20260508082102 44 113 7.0 23.5 0.00 0.00 0.00 10 998.0
20260508081551 44 23 5.2 23.5 0.00 0.00 0.00 10 998.3
20260508081042 44 270 6.1 17.4 0.00 0.00 0.00 10 998.5
20260508080535 44 68 3.5 18.2 0.00 0.00 0.00 10 998.7
20260508080020 44 90 5.2 21.7 0.00 0.00 0.00 10 998.3
20260508075510 45 113 7.0 21.7 0.00 0.00 0.00 10 998.5
20260508075001 44 203 4.3 19.1 0.00 0.00 0.00 10 998.3
20260508074450 45 90 7.0 20.9 0.00 0.00 0.00 10 998.5
20260508073940 46 203 5.2 20.9 0.00 0.00 0.00 10 998.5
20260508073430 45 270 4.3 17.4 0.00 0.00 0.00 10 998.5
20260508072921 45 158 7.8 17.4 0.00 0.00 0.00 10 998.7
20260508072410 45 270 7.8 17.4 0.00 0.00 0.00 10 998.6
20260508071900 45 158 5.2 13.9 0.00 0.00 0.00 10 998.7
20260508071350 46 90 7.0 14.8 0.00 0.00 0.00 10 999.0
20260508070840 46 293 7.0 14.8 0.00 0.00 0.00 10 999.0
20260508070329 46 248 3.5 0.0 0.00 0.00 0.00 10 999.2
20260508070147 46 248 3.5 0.0 0.00 0.00 0.00 10 999.2
20260508065550 46 113 5.2 15.6 0.00 0.01 0.00 10 999.1
20260508065030 46 270 7.8 17.4 0.00 0.01 0.00 10 998.7
20260508064521 47 113 6.1 17.4 0.00 0.01 0.00 10 999.3
20260508064010 47 248 4.3 14.8 0.00 0.01 0.00 10 999.0
20260508063501 47 45 5.2 14.8 0.00 0.01 0.00 10 999.0
20260508062950 47 315 5.2 18.2 0.00 0.01 0.00 10 999.2
20260508062441 47 68 3.5 18.2 0.00 0.01 0.00 10 999.2
20260508061930 47 248 4.3 19.1 0.00 0.01 0.00 10 999.2
20260508061420 47 90 5.2 19.1 0.00 0.01 0.00 10 999.4
20260508060910 48 90 3.5 18.2 0.00 0.01 0.00 10 999.1
20260508060400 48 225 4.3 18.2 0.00 0.01 0.00 10 999.0
20260508055851 48 293 6.1 18.2 0.00 0.01 0.00 10 999.1
20260508055340 48 315 3.5 15.6 0.00 0.01 0.00 10 999.2
20260508054830 48 203 3.5 15.6 0.00 0.01 0.00 10 999.2
20260508054319 48 338 6.1 18.2 0.00 0.01 0.00 10 999.1
20260508053810 49 113 6.1 19.1 0.00 0.01 0.00 10 999.0
20260508053259 49 248 6.1 19.1 0.00 0.01 0.00 10 999.2
20260508052749 49 0 7.0 19.1 0.00 0.01 0.00 10 999.2
20260508052239 48 248 6.1 18.2 0.00 0.01 0.00 10 999.0
20260508051730 48 248 6.1 14.8 0.00 0.01 0.00 10 998.9
20260508051219 48 68 6.1 20.9 0.00 0.01 0.00 10 998.9
20260508050708 48 68 7.8 20.9 0.00 0.01 0.00 10 999.0
20260508050158 48 135 7.0 15.6 0.00 0.01 0.00 10 999.0
20260508045648 48 270 5.2 15.6 0.00 0.01 0.00 10 999.0
20260508045138 48 248 7.0 17.4 0.00 0.01 0.00 10 999.1
20260508044628 48 270 6.1 17.4 0.00 0.01 0.00 10 998.9
20260508044118 49 68 6.1 20.9 0.00 0.01 0.00 10 998.9
20260508043609 49 135 6.1 20.9 0.00 0.01 0.00 10 999.0
20260508043107 49 158 4.3 18.2 0.00 0.01 0.00 10 999.0
20260508042548 49 293 7.0 18.2 0.00 0.01 0.00 10 999.0
20260508042038 49 315 7.0 18.2 0.00 0.01 0.00 10 999.2
20260508041538 49 158 7.0 18.2 0.00 0.01 0.00 10 999.2
20260508041018 49 225 7.0 15.6 0.00 0.01 0.00 10 999.0
20260508040507 49 248 5.2 15.6 0.00 0.01 0.00 10 998.8
20260508035956 49 90 3.5 15.6 0.00 0.01 0.00 10 998.9
20260508035447 49 113 5.2 18.2 0.00 0.01 0.00 10 998.9
20260508034937 49 293 5.2 18.2 0.00 0.01 0.00 10 998.9
20260508034428 50 90 4.3 17.4 0.00 0.01 0.00 10 998.7
20260508033917 50 23 7.8 17.4 0.00 0.01 0.00 10 999.1
20260508033407 50 203 6.1 13.0 0.00 0.01 0.00 10 998.9
20260508032856 50 338 4.3 12.2 0.00 0.01 0.00 10 998.7
20260508032346 51 270 3.5 13.9 0.00 0.01 0.00 10 998.8
20260508031837 51 90 4.3 13.9 0.00 0.01 0.00 10 998.7
20260508031326 51 225 4.3 13.0 0.00 0.01 0.00 10 998.7
20260508030817 51 293 3.5 12.2 0.00 0.01 0.00 10 998.4
20260508030306 51 90 3.5 12.2 0.00 0.01 0.00 10 998.5
20260508025757 52 248 2.6 12.2 0.00 0.01 0.97 10 998.4
20260508025245 52 293 3.5 12.2 0.00 0.01 0.97 10 998.2
20260508024225 52 135 3.5 13.0 0.00 0.01 0.97 10 998.1
20260508023206 53 203 4.3 11.3 0.00 0.01 0.97 10 997.9
20260508022655 53 248 3.5 12.2 0.00 0.01 0.97 10 998.1
20260508022145 53 338 3.5 12.2 0.00 0.01 0.97 10 998.1
20260508021635 53 180 3.5 11.3 0.00 0.01 0.97 10 998.1
20260508021124 53 293 3.5 11.3 0.00 0.01 0.97 10 998.1
20260508020616 54 23 2.6 9.6 0.00 0.01 0.97 10 998.2
20260508020105 54 135 3.5 13.0 0.00 0.01 0.97 10 997.9
20260508015045 54 248 7.0 15.6 0.00 0.01 0.97 10 997.7
20260508014534 54 248 5.2 17.4 0.00 0.01 0.97 10 997.6
20260508014024 54 225 5.2 17.4 0.00 0.01 0.97 10 997.8
20260508013515 55 315 5.2 15.6 0.00 0.01 0.97 10 997.6
20260508013005 55 315 3.5 19.1 0.00 0.01 0.97 10 997.7
20260508012454 55 270 6.1 19.1 0.00 0.01 0.97 10 997.9
20260508011944 55 45 4.3 17.4 0.00 0.01 0.97 10 997.8
20260508010924 55 203 7.0 13.9 0.00 0.01 0.97 10 998.0
20260508010413 55 248 2.6 17.4 0.00 0.01 0.97 10 997.7
20260508005904 55 0 5.2 20.0 0.00 0.01 0.97 10 997.9
20260508004843 56 293 6.1 23.5 0.00 0.01 0.97 10 997.7
20260508004332 56 315 7.8 21.7 0.00 0.01 0.97 10 997.8
20260508003823 56 338 7.0 21.7 0.00 0.01 0.97 10 997.7
20260508003314 56 315 9.6 18.2 0.00 0.01 0.97 10 997.7
20260508002803 56 248 5.2 17.4 0.00 0.01 0.97 10 997.9
20260508002253 56 135 3.5 18.2 0.00 0.01 0.97 10 997.5
20260508001742 56 293 7.0 19.1 0.00 0.01 0.97 10 997.8
20260508001232 57 315 7.0 20.0 0.00 0.01 0.97 10 997.7
20260508000722 57 270 4.3 20.0 0.00 0.01 0.97 10 998.1
20260507235701 57 225 7.8 19.1 0.00 0.01 0.97 10 997.9
20260507235152 57 270 5.2 17.4 0.00 0.01 0.97 10 997.8
20260507234641 57 180 5.2 15.6 0.00 0.01 0.97 10 997.9
20260507234132 57 293 7.0 15.6 0.00 0.01 0.97 10 998.1
20260507233622 57 315 5.2 14.8 0.00 0.01 0.97 10 998.1
20260507233111 57 203 3.5 13.0 0.00 0.01 0.97 10 997.9
20260507232601 57 315 3.5 13.0 0.00 0.01 0.97 10 998.2
20260507232050 58 270 5.2 13.0 0.00 0.01 0.97 10 998.4
20260507231036 58 293 6.1 17.4 0.00 0.01 0.97 10 998.4
20260507230521 58 293 3.5 14.8 0.00 0.01 0.97 10 998.4
20260507230014 58 315 3.5 14.8 0.00 0.01 0.97 10 998.3
20260507225501 58 338 7.0 15.6 0.00 0.01 0.97 10 998.0
20260507224951 58 315 4.3 15.6 0.00 0.01 0.97 10 998.2
20260507224440 58 315 4.3 14.8 0.00 0.01 0.97 10 998.2
20260507223930 58 293 3.5 13.0 0.00 0.01 0.97 10 998.0
20260507223421 58 248 3.5 9.6 0.00 0.01 0.97 10 998.1
20260507222910 58 158 2.6 11.3 0.00 0.01 0.97 10 998.0
20260507222400 58 293 2.6 11.3 0.00 0.01 0.97 10 997.9
20260507221851 58 225 2.6 9.6 0.00 0.01 0.97 10 997.5
20260507221340 58 293 5.2 11.3 0.00 0.01 0.97 10 997.6
20260507220830 58 270 3.5 12.2 0.00 0.01 0.97 10 997.7
20260507220320 58 23 1.7 13.0 0.00 0.01 0.97 10 997.5
20260507215809 58 293 3.5 13.0 0.00 0.01 0.97 10 997.4
20260507215301 58 338 3.5 11.3 0.00 0.01 0.97 10 997.3
20260507214748 58 270 3.5 12.2 0.00 0.01 0.97 10 996.8
20260507213730 58 248 3.5 13.0 0.00 0.01 0.97 10 996.8
20260507213219 58 203 2.6 19.1 0.00 0.01 0.97 10 996.7
20260507212709 58 180 7.0 19.1 0.00 0.01 0.97 10 996.4
20260507212159 58 270 4.3 17.4 0.00 0.01 0.97 10 996.5
20260507211649 58 293 7.0 17.4 0.00 0.01 0.97 10 996.4
20260507211138 58 315 7.8 17.4 0.00 0.01 0.97 10 996.3
20260507210628 58 203 6.1 18.2 0.00 0.01 0.97 10 996.4
20260507210118 59 225 7.8 18.2 0.00 0.01 0.97 10 996.3
20260507205609 59 270 7.8 20.9 0.00 0.01 0.97 10 996.3
20260507205058 59 225 3.5 20.9 0.00 0.01 0.97 10 996.3
20260507204548 59 248 5.2 19.1 0.00 0.01 0.97 10 996.4
20260507203528 59 270 3.5 20.0 0.00 0.01 0.97 10 996.4
20260507202507 59 315 7.0 19.1 0.00 0.01 0.97 10 996.6
20260507201448 60 203 10.4 18.2 0.00 0.01 0.97 10 996.6
20260507200937 60 225 9.6 20.9 0.00 0.01 0.97 10 996.2
20260507200427 60 248 9.6 20.9 0.00 0.01 0.97 10 996.1
20260507195918 60 248 3.5 21.7 0.00 0.01 0.97 10 996.6